Time,TemperatureF,DewpointF,PressureIn,WindDirection,WindDirectionDegrees,WindSpeedMPH,WindSpeedGustMPH,Humidity,HourlyPrecipIn,Conditions,Clouds,dailyrainin,SoftwareType,DateUTC
2013-03-31 00:01:00,46.0,32.0,30.07,SSE,157,4.0,7.0,57,0.00,,,0.00,,2013-03-31 06:01:00,
2013-03-31 00:11:00,46.0,32.0,30.07,SSE,157,4.0,7.0,57,0.00,,,0.00,,2013-03-31 06:11:00,
2013-03-31 00:21:00,46.0,32.0,30.07,SE,135,4.0,6.0,58,0.00,,,0.00,,2013-03-31 06:21:00,
2013-03-31 00:32:00,45.0,32.0,30.06,SE,135,4.0,6.0,60,0.00,,,0.00,,2013-03-31 06:32:00,
2013-03-31 00:42:00,45.0,32.0,30.06,SE,135,4.0,6.0,60,0.00,,,0.00,,2013-03-31 06:42:00,
2013-03-31 00:52:00,44.0,31.0,30.06,ESE,112,6.0,8.0,61,0.00,,,0.00,,2013-03-31 06:52:00,
2013-03-31 01:01:00,43.0,31.0,30.06,SE,135,5.0,7.0,63,0.00,,,0.00,,2013-03-31 07:01:00,
2013-03-31 01:11:00,43.0,31.0,30.06,SE,135,5.0,7.0,63,0.00,,,0.00,,2013-03-31 07:11:00,
2013-03-31 01:21:00,43.0,32.0,30.06,SE,135,3.0,5.0,65,0.00,,,0.00,,2013-03-31 07:21:00,
2013-03-31 01:31:00,43.0,32.0,30.05,SSE,157,2.0,4.0,64,0.00,,,0.00,,2013-03-31 07:31:00,
2013-03-31 01:42:00,43.0,32.0,30.05,SSE,157,2.0,4.0,64,0.00,,,0.00,,2013-03-31 07:42:00,
2013-03-31 01:52:00,40.0,28.0,30.05,South,180,1.0,2.0,63,0.00,,,0.00,,2013-03-31 07:52:00,
2013-03-31 02:01:00,37.0,28.0,30.03,South,180,3.0,4.0,69,0.00,,,0.00,,2013-03-31 08:01:00,
2013-03-31 02:21:00,38.0,29.0,30.03,South,180,3.0,4.0,70,0.00,,,0.00,,2013-03-31 08:21:00,
2013-03-31 02:31:00,39.0,29.0,30.03,SE,135,2.0,3.0,67,0.00,,,0.00,,2013-03-31 08:31:00,
2013-03-31 02:41:00,39.0,29.0,30.03,SE,135,2.0,3.0,67,0.00,,,0.00,,2013-03-31 08:41:00,
2013-03-31 02:51:00,38.0,29.0,30.02,ESE,112,4.0,6.0,71,0.00,,,0.00,,2013-03-31 08:51:00,
2013-03-31 03:01:00,38.0,29.0,30.02,South,180,2.0,3.0,71,0.00,,,0.00,,2013-03-31 09:01:00,
2013-03-31 03:11:00,38.0,29.0,30.02,South,180,2.0,3.0,71,0.00,,,0.00,,2013-03-31 09:11:00,
2013-03-31 03:21:00,35.0,26.0,30.02,South,180,1.0,2.0,68,0.00,,,0.00,,2013-03-31 09:21:00,
2013-03-31 03:32:00,34.0,27.0,30.01,South,180,2.0,2.0,76,0.00,,,0.00,,2013-03-31 09:32:00,
2013-03-31 03:42:00,34.0,27.0,30.01,South,180,2.0,2.0,76,0.00,,,0.00,,2013-03-31 09:42:00,
2013-03-31 03:52:00,37.0,30.0,30.01,SE,135,3.0,6.0,76,0.00,,,0.00,,2013-03-31 09:52:00,
2013-03-31 04:02:00,35.0,28.0,30.01,South,180,4.0,5.0,74,0.00,,,0.00,,2013-03-31 10:02:00,
2013-03-31 04:12:00,35.0,28.0,30.01,South,180,4.0,5.0,74,0.00,,,0.00,,2013-03-31 10:12:00,
2013-03-31 04:22:00,33.0,27.0,30.00,South,180,4.0,4.0,77,0.00,,,0.00,,2013-03-31 10:22:00,
2013-03-31 04:32:00,33.0,26.0,29.98,SSE,157,2.0,4.0,76,0.00,,,0.00,,2013-03-31 10:32:00,
2013-03-31 04:41:00,33.0,26.0,29.98,SSE,157,2.0,4.0,76,0.00,,,0.00,,2013-03-31 10:41:00,
2013-03-31 04:52:00,34.0,27.0,29.98,SSE,157,3.0,4.0,76,0.00,,,0.00,,2013-03-31 10:52:00,
2013-03-31 05:02:00,34.0,26.0,30.00,SSE,157,4.0,6.0,73,0.00,,,0.00,,2013-03-31 11:02:00,
2013-03-31 05:11:00,34.0,26.0,30.00,SSE,157,4.0,6.0,73,0.00,,,0.00,,2013-03-31 11:11:00,
2013-03-31 05:21:00,35.0,26.0,30.00,ESE,112,3.0,4.0,70,0.00,,,0.00,,2013-03-31 11:21:00,
2013-03-31 05:32:00,32.0,24.0,30.00,South,180,3.0,4.0,72,0.00,,,0.00,,2013-03-31 11:32:00,
2013-03-31 05:42:00,32.0,24.0,30.00,South,180,3.0,4.0,72,0.00,,,0.00,,2013-03-31 11:42:00,
2013-03-31 05:51:00,31.0,25.0,29.98,South,180,3.0,4.0,77,0.00,,,0.00,,2013-03-31 11:51:00,
2013-03-31 06:02:00,32.0,25.0,29.98,South,180,3.0,4.0,75,0.00,,,0.00,,2013-03-31 12:02:00,
2013-03-31 06:11:00,32.0,25.0,29.98,South,180,3.0,4.0,75,0.00,,,0.00,,2013-03-31 12:11:00,
2013-03-31 06:21:00,32.0,25.0,29.98,South,180,2.0,3.0,76,0.00,,,0.00,,2013-03-31 12:21:00,
2013-03-31 06:32:00,33.0,25.0,29.98,SSE,157,2.0,3.0,73,0.00,,,0.00,,2013-03-31 12:32:00,
2013-03-31 06:42:00,33.0,25.0,29.98,SSE,157,2.0,3.0,73,0.00,,,0.00,,2013-03-31 12:42:00,
2013-03-31 06:52:00,32.0,25.0,29.98,SE,135,2.0,2.0,74,0.00,,,0.00,,2013-03-31 12:52:00,
2013-03-31 07:01:00,32.0,25.0,29.98,SE,135,2.0,4.0,76,0.00,,,0.00,,2013-03-31 13:01:00,
2013-03-31 07:11:00,32.0,25.0,29.98,SE,135,2.0,4.0,76,0.00,,,0.00,,2013-03-31 13:11:00,
2013-03-31 07:21:00,29.0,21.0,29.98,SW,225,2.0,2.0,73,0.00,,,0.00,,2013-03-31 13:21:00,
2013-03-31 07:31:00,29.0,23.0,29.98,South,180,1.0,2.0,78,0.00,,,0.00,,2013-03-31 13:31:00,
2013-03-31 07:41:00,29.0,23.0,29.98,South,180,1.0,2.0,78,0.00,,,0.00,,2013-03-31 13:41:00,
2013-03-31 07:52:00,34.0,25.0,30.00,SSE,157,2.0,2.0,70,0.00,,,0.00,,2013-03-31 13:52:00,
2013-03-31 08:01:00,38.0,28.0,30.03,East,90,3.0,6.0,67,0.00,,,0.00,,2013-03-31 14:01:00,
2013-03-31 08:11:00,38.0,28.0,30.03,East,90,3.0,6.0,67,0.00,,,0.00,,2013-03-31 14:11:00,
2013-03-31 08:21:00,39.0,28.0,30.05,ESE,112,2.0,4.0,65,0.00,,,0.00,,2013-03-31 14:21:00,
2013-03-31 08:32:00,41.0,29.0,30.06,East,90,2.0,2.0,61,0.00,,,0.00,,2013-03-31 14:32:00,
2013-03-31 08:42:00,41.0,29.0,30.06,East,90,2.0,2.0,61,0.00,,,0.00,,2013-03-31 14:42:00,
2013-03-31 08:51:00,43.0,29.0,30.08,East,90,2.0,3.0,58,0.00,,,0.00,,2013-03-31 14:51:00,
2013-03-31 09:01:00,44.0,28.0,30.09,East,90,2.0,3.0,54,0.00,,,0.00,,2013-03-31 15:01:00,
2013-03-31 09:11:00,44.0,28.0,30.09,East,90,2.0,3.0,54,0.00,,,0.00,,2013-03-31 15:11:00,
2013-03-31 09:21:00,45.0,29.0,30.10,East,90,1.0,2.0,53,0.00,,,0.00,,2013-03-31 15:21:00,
2013-03-31 09:32:00,47.0,29.0,30.11,South,180,1.0,2.0,50,0.00,,,0.00,,2013-03-31 15:32:00,
2013-03-31 09:42:00,47.0,29.0,30.11,South,180,1.0,2.0,50,0.00,,,0.00,,2013-03-31 15:42:00,
2013-03-31 09:53:00,49.0,29.0,30.11,SSE,157,2.0,2.0,46,0.00,,,0.00,,2013-03-31 15:53:00,
2013-03-31 10:02:00,51.0,29.0,30.12,South,180,1.0,2.0,43,0.00,,,0.00,,2013-03-31 16:02:00,
2013-03-31 10:12:00,51.0,29.0,30.12,South,180,1.0,2.0,43,0.00,,,0.00,,2013-03-31 16:12:00,
2013-03-31 10:22:00,53.0,29.0,30.13,South,180,2.0,3.0,40,0.00,,,0.00,,2013-03-31 16:22:00,
2013-03-31 10:32:00,55.0,29.0,30.14,SSW,202,1.0,2.0,37,0.00,,,0.00,,2013-03-31 16:32:00,
2013-03-31 10:42:00,55.0,29.0,30.14,SSW,202,1.0,2.0,37,0.00,,,0.00,,2013-03-31 16:42:00,
2013-03-31 10:52:00,55.0,29.0,30.14,East,90,1.0,4.0,37,0.00,,,0.00,,2013-03-31 16:52:00,
2013-03-31 11:02:00,58.0,30.0,30.14,South,180,2.0,3.0,34,0.00,,,0.00,,2013-03-31 17:02:00,
2013-03-31 11:21:00,58.0,29.0,30.14,East,90,3.0,6.0,33,0.00,,,0.00,,2013-03-31 17:21:00,
2013-03-31 11:31:00,60.0,29.0,30.15,NE,45,4.0,4.0,31,0.00,,,0.00,,2013-03-31 17:31:00,
2013-03-31 11:42:00,60.0,29.0,30.15,NE,45,4.0,4.0,31,0.00,,,0.00,,2013-03-31 17:42:00,
2013-03-31 11:51:00,61.0,29.0,30.15,North,360,3.0,5.0,29,0.00,,,0.00,,2013-03-31 17:51:00,
2013-03-31 12:01:00,61.0,27.0,30.14,North,360,3.0,5.0,27,0.00,,,0.00,,2013-03-31 18:01:00,
2013-03-31 12:12:00,61.0,27.0,30.14,North,360,3.0,5.0,27,0.00,,,0.00,,2013-03-31 18:12:00,
2013-03-31 12:21:00,62.0,28.0,30.14,ENE,67,5.0,8.0,27,0.00,,,0.00,,2013-03-31 18:21:00,
2013-03-31 12:31:00,62.0,26.0,30.14,ENE,67,5.0,7.0,25,0.00,,,0.00,,2013-03-31 18:31:00,
2013-03-31 12:41:00,62.0,26.0,30.14,ENE,67,5.0,7.0,25,0.00,,,0.00,,2013-03-31 18:41:00,
2013-03-31 12:52:00,63.0,25.0,30.14,North,360,3.0,6.0,23,0.00,,,0.00,,2013-03-31 18:52:00,
2013-03-31 13:02:00,64.0,22.0,30.14,NE,45,5.0,12.0,20,0.00,,,0.00,,2013-03-31 19:02:00,
2013-03-31 13:11:00,64.0,22.0,30.14,NE,45,5.0,12.0,20,0.00,,,0.00,,2013-03-31 19:11:00,
2013-03-31 13:21:00,64.0,24.0,30.13,NE,45,5.0,8.0,22,0.00,,,0.00,,2013-03-31 19:21:00,
2013-03-31 13:32:00,64.0,25.0,30.13,NE,45,3.0,5.0,23,0.00,,,0.00,,2013-03-31 19:32:00,
2013-03-31 13:42:00,64.0,25.0,30.13,NE,45,3.0,5.0,23,0.00,,,0.00,,2013-03-31 19:42:00,
2013-03-31 13:53:00,64.0,24.0,30.12,North,360,11.0,13.0,22,0.00,,,0.00,,2013-03-31 19:53:00,
2013-03-31 14:02:00,65.0,24.0,30.12,East,90,4.0,6.0,21,0.00,,,0.00,,2013-03-31 20:02:00,
2013-03-31 14:11:00,65.0,24.0,30.12,East,90,4.0,6.0,21,0.00,,,0.00,,2013-03-31 20:11:00,
2013-03-31 14:21:00,66.0,26.0,30.12,North,360,5.0,6.0,22,0.00,,,0.00,,2013-03-31 20:21:00,
2013-03-31 14:32:00,65.0,23.0,30.12,NW,315,3.0,7.0,20,0.00,,,0.00,,2013-03-31 20:32:00,
2013-03-31 14:42:00,65.0,23.0,30.12,NW,315,3.0,7.0,20,0.00,,,0.00,,2013-03-31 20:42:00,
2013-03-31 14:52:00,66.0,25.0,30.12,SSW,202,2.0,6.0,21,0.00,,,0.00,,2013-03-31 20:52:00,
2013-03-31 15:02:00,67.0,26.0,30.11,NE,45,3.0,6.0,21,0.00,,,0.00,,2013-03-31 21:02:00,
2013-03-31 15:11:00,67.0,26.0,30.11,NE,45,3.0,6.0,21,0.00,,,0.00,,2013-03-31 21:11:00,
2013-03-31 15:21:00,67.0,25.0,30.11,West,270,6.0,8.0,20,0.00,,,0.00,,2013-03-31 21:21:00,
2013-03-31 15:33:00,67.0,26.0,30.10,NW,315,3.0,5.0,21,0.00,,,0.00,,2013-03-31 21:33:00,
2013-03-31 15:42:00,67.0,26.0,30.10,NW,315,3.0,5.0,21,0.00,,,0.00,,2013-03-31 21:42:00,
2013-03-31 15:52:00,67.0,25.0,30.10,NE,45,2.0,4.0,20,0.00,,,0.00,,2013-03-31 21:52:00,
2013-03-31 16:02:00,67.0,25.0,30.10,NW,315,3.0,5.0,20,0.00,,,0.00,,2013-03-31 22:02:00,
2013-03-31 16:12:00,67.0,25.0,30.10,NW,315,3.0,5.0,20,0.00,,,0.00,,2013-03-31 22:12:00,
2013-03-31 16:22:00,66.0,24.0,30.10,North,360,6.0,9.0,20,0.00,,,0.00,,2013-03-31 22:22:00,
2013-03-31 16:32:00,66.0,25.0,30.08,NNE,22,2.0,2.0,21,0.00,,,0.00,,2013-03-31 22:32:00,
2013-03-31 16:42:00,66.0,25.0,30.08,NNE,22,2.0,2.0,21,0.00,,,0.00,,2013-03-31 22:42:00,
2013-03-31 16:52:00,66.0,24.0,30.08,NW,315,5.0,7.0,20,0.00,,,0.00,,2013-03-31 22:52:00,
2013-03-31 17:02:00,68.0,24.0,30.08,North,360,8.0,11.0,19,0.00,,,0.00,,2013-03-31 23:02:00,
2013-03-31 17:12:00,68.0,24.0,30.08,North,360,8.0,11.0,19,0.00,,,0.00,,2013-03-31 23:12:00,
2013-03-31 17:21:00,65.0,22.0,30.08,North,360,1.0,2.0,19,0.00,,,0.00,,2013-03-31 23:21:00,
2013-03-31 17:31:00,68.0,24.0,30.07,WNW,292,5.0,9.0,19,0.00,,,0.00,,2013-03-31 23:31:00,
2013-03-31 17:41:00,68.0,24.0,30.07,WNW,292,5.0,9.0,19,0.00,,,0.00,,2013-03-31 23:41:00,
2013-03-31 17:52:00,67.0,25.0,30.07,NW,315,3.0,5.0,20,0.00,,,0.00,,2013-03-31 23:52:00,
2013-03-31 18:01:00,66.0,25.0,30.07,North,360,3.0,5.0,21,0.00,,,0.00,,2013-04-01 00:01:00,
2013-03-31 18:11:00,66.0,25.0,30.07,North,360,3.0,5.0,21,0.00,,,0.00,,2013-04-01 00:11:00,
2013-03-31 18:21:00,65.0,23.0,30.06,North,360,4.0,6.0,20,0.00,,,0.00,,2013-04-01 00:21:00,
2013-03-31 18:31:00,62.0,23.0,30.03,NE,45,2.0,4.0,22,0.00,,,0.00,,2013-04-01 00:31:00,
2013-03-31 18:51:00,64.0,22.0,30.03,NNE,22,5.0,6.0,20,0.00,,,0.00,,2013-04-01 00:51:00,
2013-03-31 19:01:00,63.0,22.0,30.03,North,360,3.0,3.0,21,0.00,,,0.00,,2013-04-01 01:01:00,
2013-03-31 19:11:00,63.0,22.0,30.03,North,360,3.0,3.0,21,0.00,,,0.00,,2013-04-01 01:11:00,
2013-03-31 19:21:00,61.0,22.0,30.02,North,360,2.0,2.0,22,0.00,,,0.00,,2013-04-01 01:21:00,
2013-03-31 19:31:00,61.0,22.0,30.01,North,360,1.0,2.0,22,0.00,,,0.00,,2013-04-01 01:31:00,
2013-03-31 19:42:00,61.0,22.0,30.01,North,360,1.0,2.0,22,0.00,,,0.00,,2013-04-01 01:42:00,
2013-03-31 19:52:00,59.0,21.0,30.00,North,360,1.0,2.0,23,0.00,,,0.00,,2013-04-01 01:52:00,
2013-03-31 20:02:00,57.0,22.0,29.98,North,360,2.0,2.0,25,0.00,,,0.00,,2013-04-01 02:02:00,
2013-03-31 20:21:00,56.0,22.0,29.98,North,360,1.0,2.0,26,0.00,,,0.00,,2013-04-01 02:21:00,
2013-03-31 20:32:00,53.0,22.0,29.98,South,180,4.0,4.0,29,0.00,,,0.00,,2013-04-01 02:32:00,
2013-03-31 20:42:00,53.0,22.0,29.98,South,180,4.0,4.0,29,0.00,,,0.00,,2013-04-01 02:42:00,
2013-03-31 20:52:00,51.0,21.0,29.98,South,180,4.0,4.0,31,0.00,,,0.00,,2013-04-01 02:52:00,
2013-03-31 21:02:00,49.0,22.0,29.97,South,180,5.0,6.0,34,0.00,,,0.00,,2013-04-01 03:02:00,
2013-03-31 21:21:00,49.0,23.0,29.97,South,180,4.0,6.0,35,0.00,,,0.00,,2013-04-01 03:21:00,
2013-03-31 21:32:00,48.0,22.0,29.96,South,180,4.0,6.0,35,0.00,,,0.00,,2013-04-01 03:32:00,
2013-03-31 21:42:00,48.0,22.0,29.96,South,180,4.0,6.0,35,0.00,,,0.00,,2013-04-01 03:42:00,
2013-03-31 21:52:00,48.0,22.0,29.96,South,180,1.0,2.0,36,0.00,,,0.00,,2013-04-01 03:52:00,
2013-03-31 22:02:00,46.0,22.0,29.96,SE,135,3.0,4.0,38,0.00,,,0.00,,2013-04-01 04:02:00,
2013-03-31 22:22:00,47.0,22.0,29.95,SE,135,4.0,6.0,37,0.00,,,0.00,,2013-04-01 04:22:00,
2013-03-31 22:32:00,49.0,22.0,29.96,SSE,157,3.0,4.0,34,0.00,,,0.00,,2013-04-01 04:32:00,
2013-03-31 22:42:00,49.0,22.0,29.96,SSE,157,3.0,4.0,34,0.00,,,0.00,,2013-04-01 04:42:00,
2013-03-31 22:52:00,50.0,22.0,29.96,SSE,157,2.0,4.0,33,0.00,,,0.00,,2013-04-01 04:52:00,
2013-03-31 23:02:00,48.0,23.0,29.96,ESE,112,4.0,6.0,37,0.00,,,0.00,,2013-04-01 05:02:00,
2013-03-31 23:11:00,48.0,23.0,29.96,ESE,112,4.0,6.0,37,0.00,,,0.00,,2013-04-01 05:11:00,
2013-03-31 23:21:00,50.0,23.0,29.96,SSE,157,3.0,4.0,35,0.00,,,0.00,,2013-04-01 05:21:00,
2013-03-31 23:31:00,49.0,23.0,29.95,SE,135,2.0,3.0,36,0.00,,,0.00,,2013-04-01 05:31:00,
2013-03-31 23:42:00,49.0,23.0,29.95,SE,135,2.0,3.0,36,0.00,,,0.00,,2013-04-01 05:42:00,
2013-03-31 23:52:00,47.0,23.0,29.95,South,180,3.0,4.0,39,0.00,,,0.00,,2013-04-01 05:52:00,